When you browse on this site, cookies collect data to enhance your experience and personalize the content and advertising you see.
Visit our Privacy Policy to learn more. By continuing to use the site, you agree to this use of cookies and data.
  • In Portugal
  • List of Countries
  • For 7 days
  • Water Temperature
  • Satellite Maps
  • Weather Map
  • Weather Widgets
  • user-avatar
    Login

    Hourly Weather Mons

    Today, 13 December, Thursday

    Time Temperature Precipitation Wind Pressure Humidity
    00:00 -1°C° 0 mm 4 mps 763 mmHg 87%
    01:00 -1°C° 0 mm 4 mps 763 mmHg 87%
    02:00 -1°C° 0 mm 4 mps 762 mmHg 87%
    03:00 -1°C° 0 mm 3 mps 762 mmHg 88%
    04:00 -2°C° 0 mm 4 mps 761 mmHg 87%
    05:00 -2°C° 0 mm 4 mps 761 mmHg 86%
    06:00 -2°C° 0 mm 4 mps 761 mmHg 86%
    07:00 -1°C° 0 mm 4 mps 761 mmHg 83%
    08:00 -1°C° 0 mm 5 mps 761 mmHg 81%
    09:00 -1°C° 0 mm 5 mps 761 mmHg 78%
    10:00 0°C° 0 mm 5 mps 760 mmHg 72%
    11:00 +1°C° 0 mm 5 mps 760 mmHg 67%
    12:00 +2°C° 0 mm 6 mps 760 mmHg 61%
    13:00 +1°C° 0 mm 5 mps 760 mmHg 62%
    14:00 +1°C° 0 mm 4 mps 760 mmHg 63%
    15:00 0°C° 0 mm 4 mps 760 mmHg 63%
    16:00 0°C° 0 mm 4 mps 760 mmHg 66%
    17:00 -1°C° 0 mm 4 mps 761 mmHg 68%
    18:00 -2°C° 0 mm 4 mps 761 mmHg 70%
    19:00 -2°C° 0 mm 4 mps 761 mmHg 72%
    20:00 -2°C° 0 mm 4 mps 761 mmHg 73%
    21:00 -2°C° 0 mm 4 mps 762 mmHg 75%
    22:00 -3°C° 0 mm 4 mps 762 mmHg 77%
    23:00 -2°C° 0 mm 3 mps 762 mmHg 78%

    Tomorrow, 14 December, Friday

    Time Temperature Precipitation Wind Pressure Humidity
    00:00 -2°C° 0 mm 3 mps 762 mmHg 79%
    01:00 -2°C° 0 mm 3 mps 762 mmHg 81%
    02:00 -2°C° 0 mm 3 mps 762 mmHg 82%
    03:00 -2°C° 0 mm 3 mps 762 mmHg 84%
    04:00 -2°C° 0 mm 3 mps 763 mmHg 85%
    05:00 -2°C° 0 mm 3 mps 763 mmHg 86%
    06:00 -2°C° 0 mm 3 mps 763 mmHg 86%
    07:00 -2°C° 0 mm 3 mps 763 mmHg 85%
    08:00 -3°C° 0 mm 4 mps 763 mmHg 83%
    09:00 -3°C° 0 mm 4 mps 763 mmHg 81%
    10:00 -1°C° 0 mm 3 mps 764 mmHg 77%
    11:00 0°C° 0 mm 3 mps 764 mmHg 72%
    12:00 +1°C° 0 mm 3 mps 764 mmHg 67%
    13:00 +1°C° 0 mm 3 mps 764 mmHg 69%
    14:00 +1°C° 0 mm 2 mps 764 mmHg 72%
    15:00 +1°C° 0 mm 2 mps 764 mmHg 74%
    16:00 -1°C° 0 mm 2 mps 764 mmHg 78%
    17:00 -1°C° 0 mm 2 mps 765 mmHg 82%
    18:00 -2°C° 0 mm 2 mps 765 mmHg 85%
    19:00 -2°C° 0 mm 2 mps 765 mmHg 85%
    20:00 -2°C° 0 mm 2 mps 765 mmHg 85%
    21:00 -2°C° 0 mm 2 mps 765 mmHg 85%
    22:00 -3°C° 0 mm 2 mps 765 mmHg 84%
    23:00 -3°C° 0 mm 2 mps 765 mmHg 83%

    Day after tomorrow, 15 December, Saturday

    Time Temperature Precipitation Wind Pressure Humidity
    00:00 -1°C° 0 mm 1 mps 765 mmHg 82%
    01:00 -3°C° 0 mm 2 mps 765 mmHg 82%
    02:00 -3°C° 0 mm 2 mps 765 mmHg 82%
    03:00 -3°C° 0 mm 2 mps 765 mmHg 81%
    04:00 -3°C° 0 mm 2 mps 764 mmHg 81%
    05:00 -3°C° 0 mm 2 mps 764 mmHg 81%
    06:00 -3°C° 0 mm 2 mps 764 mmHg 80%
    07:00 -4°C° 0 mm 3 mps 764 mmHg 78%
    08:00 -2°C° 0 mm 3 mps 764 mmHg 75%
    09:00 -3°C° 0 mm 4 mps 763 mmHg 73%
    10:00 -2°C° 0 mm 4 mps 763 mmHg 69%
    11:00 -1°C° 0 mm 5 mps 763 mmHg 65%
    12:00 0°C° 0 mm 5 mps 762 mmHg 61%
    13:00 0°C° 0 mm 5 mps 762 mmHg 61%
    14:00 -1°C° 0 mm 6 mps 761 mmHg 61%
    15:00 -1°C° 0 mm 6 mps 760 mmHg 61%
    16:00 -1°C° 0.2 mm 6 mps 759 mmHg 63%
    17:00 -1°C° 0.2 mm 7 mps 759 mmHg 64%
    18:00 -1°C° 0.2 mm 8 mps 758 mmHg 65%
    19:00 -1°C° 1.1 mm 8 mps 757 mmHg 72%
    20:00 -1°C° 1.1 mm 9 mps 756 mmHg 78%
    21:00 -2°C° 1.1 mm 10 mps 756 mmHg 84%
    22:00 0°C° 1.5 mm 9 mps 755 mmHg 85%
    23:00 0°C° 1.5 mm 9 mps 754 mmHg 85%

    16 December, Sunday

    Time Temperature Precipitation Wind Pressure Humidity
    00:00 0°C° 1.5 mm 9 mps 754 mmHg 86%
    01:00 0°C° 0.3 mm 8 mps 754 mmHg 88%
    02:00 +1°C° 0.3 mm 6 mps 754 mmHg 90%
    03:00 +1°C° 0.3 mm 5 mps 754 mmHg 92%
    04:00 +1°C° 0 mm 5 mps 754 mmHg 93%
    05:00 +1°C° 0 mm 4 mps 754 mmHg 94%
    06:00 +2°C° 0 mm 3 mps 754 mmHg 95%
    07:00 +2°C° 0 mm 3 mps 755 mmHg 95%
    08:00 +2°C° 0 mm 3 mps 755 mmHg 95%
    09:00 +2°C° 0 mm 3 mps 756 mmHg 95%
    10:00 +3°C° 0.2 mm 3 mps 756 mmHg 94%
    11:00 +4°C° 0.2 mm 3 mps 756 mmHg 93%
    12:00 +4°C° 0.2 mm 3 mps 756 mmHg 92%
    13:00 +4°C° 0.5 mm 3 mps 756 mmHg 93%
    14:00 +3°C° 0.5 mm 3 mps 756 mmHg 95%
    15:00 +4°C° 0.5 mm 2 mps 756 mmHg 96%
    16:00 +3°C° 0 mm 3 mps 757 mmHg 96%
    17:00 +2°C° 0 mm 3 mps 757 mmHg 96%
    18:00 +1°C° 0 mm 4 mps 757 mmHg 96%
    19:00 +1°C° 0 mm 4 mps 757 mmHg 96%
    20:00 +2°C° 0 mm 3 mps 757 mmHg 96%
    21:00 +3°C° 0 mm 3 mps 758 mmHg 95%
    22:00 +1°C° 0 mm 4 mps 757 mmHg 95%
    23:00 +1°C° 0 mm 4 mps 757 mmHg 95%

    17 December, Monday

    Time Temperature Precipitation Wind Pressure Humidity
    00:00 +1°C° 0 mm 4 mps 757 mmHg 95%
    01:00 +1°C° 0.4 mm 4 mps 757 mmHg 95%
    02:00 +3°C° 0.4 mm 4 mps 757 mmHg 95%
    03:00 +3°C° 0.4 mm 4 mps 757 mmHg 95%
    04:00 +3°C° 0.5 mm 3 mps 757 mmHg 95%
    05:00 +3°C° 0.5 mm 3 mps 758 mmHg 95%
    06:00 +3°C° 0.5 mm 3 mps 758 mmHg 96%
    07:00 +3°C° 0 mm 3 mps 759 mmHg 95%
    08:00 +3°C° 0 mm 3 mps 759 mmHg 94%
    09:00 +3°C° 0 mm 3 mps 760 mmHg 93%
    10:00 +4°C° 0 mm 3 mps 760 mmHg 90%
    11:00 +5°C° 0 mm 4 mps 761 mmHg 88%
    12:00 +6°C° 0 mm 4 mps 761 mmHg 85%
    13:00 +5°C° 0 mm 4 mps 762 mmHg 87%
    14:00 +5°C° 0 mm 3 mps 762 mmHg 90%
    15:00 +5°C° 0 mm 3 mps 762 mmHg 92%
    16:00 +4°C° 0 mm 3 mps 762 mmHg 93%
    17:00 +4°C° 0 mm 3 mps 763 mmHg 94%
    18:00 +3°C° 0 mm 3 mps 763 mmHg 94%
    19:00 +3°C° 0 mm 3 mps 763 mmHg 94%
    20:00 +2°C° 0 mm 3 mps 764 mmHg 94%
    21:00 +2°C° 0 mm 3 mps 764 mmHg 94%
    22:00 +2°C° 0 mm 3 mps 764 mmHg 94%
    23:00 +2°C° 0 mm 3 mps 764 mmHg 95%

    18 December, Tuesday

    Time Temperature Precipitation Wind Pressure Humidity
    00:00 +2°C° 0 mm 3 mps 764 mmHg 95%
    01:00 +2°C° 0 mm 3 mps 764 mmHg 95%
    02:00 +1°C° 0 mm 4 mps 763 mmHg 95%
    03:00 +1°C° 0 mm 4 mps 763 mmHg 95%
    04:00 +1°C° 0 mm 4 mps 763 mmHg 95%
    05:00 +1°C° 0 mm 4 mps 763 mmHg 95%
    06:00 +2°C° 0 mm 5 mps 763 mmHg 95%
    07:00 +2°C° 0 mm 5 mps 762 mmHg 94%
    08:00 +2°C° 0 mm 5 mps 762 mmHg 92%
    09:00 +3°C° 0 mm 6 mps 761 mmHg 91%
    10:00 +3°C° 0 mm 6 mps 761 mmHg 88%
    11:00 +4°C° 0 mm 6 mps 760 mmHg 84%
    12:00 +5°C° 0 mm 7 mps 759 mmHg 81%
    13:00 +5°C° 0 mm 6 mps 758 mmHg 81%
    14:00 +4°C° 0 mm 6 mps 758 mmHg 81%
    15:00 +4°C° 0 mm 6 mps 757 mmHg 81%
    16:00 +4°C° 0 mm 6 mps 756 mmHg 78%
    17:00 +3°C° 0 mm 6 mps 756 mmHg 75%
    18:00 +3°C° 0 mm 7 mps 755 mmHg 73%
    19:00 +3°C° 0 mm 7 mps 754 mmHg 71%
    20:00 +3°C° 0 mm 7 mps 754 mmHg 70%
    21:00 +3°C° 0 mm 7 mps 753 mmHg 69%
    22:00 +3°C° 0.1 mm 7 mps 753 mmHg 72%
    23:00 +4°C° 0.1 mm 7 mps 752 mmHg 74%
    Show more